Home   Weather   Slough   Past weeks

Flag for United Kingdom Past Weather in Slough, England, United Kingdom — Yesterday and Last 2 Weeks

Now
36 °F

Chilly.


Feels Like: 32 °F
Forecast: 24 / 37 °F
Wind: 5 mph from Southeast

Location: London City Airport

Current Time: Jan 21, 2017 at 11:01:11 am

Latest Report: Jan 21, 2017 at 10:20 am


Visibility: N/A

Pressure: 30.39 "Hg

Humidity: 81%

Dew Point: 30 °F

Location of SloughLocation

Past Weather in Slough — Graph

°F

Slough Temperature Yesterday

Maximum temperature yesterday: 45 °F (at 12:50 pm)
Minimum temperature yesterday: 30 °F (at 7:50 am)
Average temperature yesterday: 37 °F

High & Low Weather Summary for the Past Weeks

 TemperatureHumidityPressure
High54 °F (Jan 11, 10:50 am)100% (Jan 7, 2:20 am)30.69 "Hg (Jan 7, 2:20 am)
Low30 °F (Jan 18, 5:20 am)49% (Jan 20, 2:20 pm)29.33 "Hg (Jan 12, 5:20 pm)
Average42 °F83%30.25 "Hg
* Reported Jan 6 9:20 am — Jan 21 9:50 am, Slough, Weather by CustomWeather, © 2017

Note: Actual official high and low records may vary slightly from our data, if they occured in-between our weather recording intervals... More about our weather records

Advertising

Slough Weather History for the Previous 24 Hours

Scroll right to see more
 ConditionsComfort  
Time TempWeatherWind HumidityBarometerVisibility
9:50 am
Sat, Jan 21
34 °FChilly.2 mph87%30.39 "Hg5 mi
9:20 am34 °FChilly.2 mph87%30.39 "Hg6 mi
8:50 am32 °FChilly.3 mph93%30.39 "Hg6 mi
8:20 am30 °FChilly.1 mph93%30.39 "HgN/A
7:50 am30 °FChilly.2 mph93%30.39 "HgN/A
7:20 am30 °FChilly.3 mph93%30.39 "Hg6 mi
6:50 am30 °FChilly.No wind93%30.39 "Hg6 mi
6:20 am30 °FChilly.1 mph93%30.39 "Hg5 mi
5:50 am32 °FChilly.2 mph87%30.39 "HgN/A
5:20 am32 °FChilly.2 mph87%30.39 "HgN/A
4:50 am32 °FChilly.1 mph87%30.39 "HgN/A
4:20 am32 °FChilly.1 mph87%30.39 "HgN/A
3:50 am32 °FChilly.2 mph87%30.42 "HgN/A
3:20 am32 °FChilly.1 mph87%30.42 "HgN/A
2:50 am32 °FChilly.5 mph93%30.42 "HgN/A
2:20 am32 °FChilly.3 mph93%30.42 "HgN/A
1:50 am34 °FChilly.2 mph87%30.42 "HgN/A
1:20 am34 °FChilly.3 mph93%30.45 "Hg6 mi
12:50 am34 °FChilly.1 mph93%30.45 "HgN/A
12:20 am34 °FChilly.3 mph93%30.45 "HgN/A
11:50 pm
Fri, Jan 20
34 °FChilly.No wind93%30.45 "HgN/A
11:20 pm34 °FChilly.2 mph93%30.45 "HgN/A
10:50 pm36 °FChilly.5 mph87%30.45 "HgN/A
10:20 pm36 °FChilly.6 mph87%30.45 "HgN/A
9:50 pm36 °FChilly.5 mph93%30.45 "Hg6 mi
9:20 pm37 °FChilly.7 mph87%30.45 "HgN/A
8:50 pm36 °FChilly.7 mph87%30.45 "HgN/A
8:20 pm39 °FChilly.7 mph81%30.45 "HgN/A
7:50 pm39 °FChilly.8 mph81%30.45 "HgN/A
7:20 pm39 °FChilly.6 mph75%30.45 "HgN/A
6:50 pm39 °FChilly.6 mph70%30.45 "HgN/A
6:20 pm39 °FChilly.7 mph70%30.48 "HgN/A
5:50 pm41 °FQuite cool.7 mph66%30.48 "HgN/A
5:20 pm41 °FQuite cool.8 mph61%30.48 "HgN/A
4:50 pm41 °FQuite cool.10 mph61%30.48 "HgN/A
4:20 pm43 °FQuite cool.12 mph57%30.48 "HgN/A
3:50 pm43 °FLight rain. Cloudy.10 mph57%30.48 "HgN/A
3:20 pm45 °FQuite cool.14 mph49%30.48 "HgN/A
2:50 pm45 °FQuite cool.16 mph53%30.48 "HgN/A
2:20 pm45 °FQuite cool.16 mph49%30.48 "HgN/A
1:50 pm45 °FQuite cool.15 mph53%30.48 "HgN/A
1:20 pm45 °FQuite cool.13 mph57%30.51 "HgN/A
12:50 pm45 °FQuite cool.15 mph57%30.51 "HgN/A
12:20 pm43 °FQuite cool.13 mph61%30.51 "HgN/A
11:50 am43 °FQuite cool.13 mph61%30.54 "HgN/A
11:20 am41 °FQuite cool.7 mph70%30.54 "HgN/A
Weather by CustomWeather, © 2017

See weather overviewHow to use our weather pages